Retour au catalogue

CZ-4B R/B

ActifSSO
NORAD 32063·ROCKET BODY·🇨🇳 China

Lancé Sep 19, 2007 depuis Taiyuan Satellite Launch Center

Loading…

Prochains Passages (prochaines 24 heures)

TLE

FraisSource: Space-Track

Époque: Sep 14, 2026, 07:51 UTC

1 32063U 07042B   26257.32732994  .00000135  00000-0  43757-4 0  9997
2 32063  98.2180 199.9982 0053844 206.3733 313.5768 14.52488792  4972

Suivez CZ-4B R/B en temps réel avec AllMySat

Download on the App Store